PAA1649 KBOS-EINN

Flight info

Callsign PAA1649
Flight time 1h 1m
Altitude 11000
Route CELTK7 CELTK DCT FRILL DCT BRADD DCT JOOPY/M032F130 DCT 49N050W 51N040W 53N030W 54N020W DCT DOGAL/N0222F130 DCT BEXET DCT UNBEG UNBEG3D
Aircraft DC6/M-SDE1FGHIRWXY/S

Departure

Time 2026-05-07 05:05
Airport Boston Logan International Airport (KBOS)

Arrival

Time 2026-05-07 06:07
Airport Shannon Airport (EINN)
Time Latitude Longitude Altitude Speed Heading
2026-05-07 04:38 42.36575 -71.01386 25 ft 0 kts 296°
2026-05-07 04:45 42.36568 -71.01368 29 ft 3 kts 300°
2026-05-07 04:45 42.36556 -71.01346 28 ft 3 kts 310°
2026-05-07 04:46 42.36541 -71.01329 28 ft 3 kts 338°
2026-05-07 04:46 42.36526 -71.01330 28 ft 1 kts 25°
2026-05-07 04:46 42.36521 -71.01333 28 ft 0 kts 26°
2026-05-07 04:54 42.36527 -71.01329 29 ft 4 kts 26°
2026-05-07 04:54 42.36583 -71.01293 27 ft 14 kts 25°
2026-05-07 04:55 42.36709 -71.01245 30 ft 21 kts 13°
2026-05-07 04:55 42.36829 -71.01288 29 ft 14 kts 20°
2026-05-07 04:55 42.36893 -71.01216 27 ft 12 kts 41°
2026-05-07 04:55 42.36972 -71.01125 27 ft 17 kts 37°
2026-05-07 04:56 42.37084 -71.01047 26 ft 19 kts 26°
2026-05-07 04:56 42.37208 -71.00967 26 ft 20 kts 25°
2026-05-07 04:56 42.37342 -71.00888 27 ft 22 kts 21°
2026-05-07 04:56 42.37489 -71.00820 25 ft 23 kts 17°
2026-05-07 04:57 42.37642 -71.00750 25 ft 24 kts 20°
2026-05-07 04:57 42.37800 -71.00671 25 ft 25 kts 24°
2026-05-07 04:57 42.37817 -71.00506 26 ft 20 kts 110°
2026-05-07 04:57 42.37766 -71.00320 27 ft 22 kts 110°
2026-05-07 04:58 42.37712 -71.00122 29 ft 20 kts 110°
2026-05-07 04:58 42.37702 -71.00083 26 ft 0 kts 110°
2026-05-07 05:02 42.37693 -71.00051 28 ft 10 kts 110°
2026-05-07 05:02 42.37661 -70.99959 27 ft 6 kts 155°
2026-05-07 05:03 42.37630 -70.99965 27 ft 5 kts 195°
2026-05-07 05:03 42.37627 -70.99966 27 ft 0 kts 195°
2026-05-07 05:04 42.37622 -70.99967 27 ft 8 kts 195°
2026-05-07 05:04 42.37426 -71.00063 27 ft 51 kts 200°
2026-05-07 05:04 42.36958 -71.00288 27 ft 90 kts 199°
2026-05-07 05:04 42.36262 -71.00626 35 ft 119 kts 201°
2026-05-07 05:05 42.35452 -71.01020 132 ft 129 kts 205°
2026-05-07 05:05 42.34602 -71.01467 309 ft 135 kts 205°
2026-05-07 05:05 42.33701 -71.01939 471 ft 143 kts 204°
2026-05-07 05:05 42.32736 -71.02317 624 ft 150 kts 184°
2026-05-07 05:06 42.31810 -71.01658 683 ft 162 kts 125°
2026-05-07 05:06 42.31628 -71.00185 822 ft 158 kts 85°
2026-05-07 05:06 42.31540 -70.98733 989 ft 155 kts 97°
2026-05-07 05:06 42.31358 -70.97295 1047 ft 156 kts 115°
2026-05-07 05:07 42.30910 -70.95974 1073 ft 159 kts 101°
2026-05-07 05:07 42.31196 -70.94556 1064 ft 158 kts 50°
2026-05-07 05:07 42.31609 -70.93199 1175 ft 160 kts 86°
2026-05-07 05:07 42.31684 -70.91737 1297 ft 161 kts 81°
2026-05-07 05:08 42.31948 -70.90172 1293 ft 174 kts 77°
2026-05-07 05:08 42.32180 -70.88538 1341 ft 185 kts 79°
2026-05-07 05:08 42.32422 -70.86775 1383 ft 198 kts 79°
2026-05-07 05:08 42.32691 -70.84867 1353 ft 214 kts 78°
2026-05-07 05:09 42.32979 -70.82836 1386 ft 224 kts 78°
2026-05-07 05:09 42.33273 -70.80752 1532 ft 227 kts 78°
2026-05-07 05:09 42.33272 -70.78626 1488 ft 230 kts 108°
2026-05-07 05:09 42.32846 -70.76560 1607 ft 228 kts 104°
2026-05-07 05:10 42.32599 -70.74441 1736 ft 228 kts 98°
2026-05-07 05:10 42.32372 -70.72336 1899 ft 225 kts 100°
2026-05-07 05:10 42.32102 -70.70272 2066 ft 222 kts 101°
2026-05-07 05:10 42.31834 -70.68219 2201 ft 222 kts 102°
2026-05-07 05:11 42.31570 -70.66172 2356 ft 221 kts 102°
2026-05-07 05:11 42.31311 -70.64132 2530 ft 220 kts 102°
2026-05-07 05:11 42.31101 -70.62094 2755 ft 218 kts 98°
2026-05-07 05:11 42.30958 -70.60089 3019 ft 212 kts 99°
2026-05-07 05:12 42.30790 -70.58120 3204 ft 210 kts 100°
2026-05-07 05:12 42.30623 -70.56170 3360 ft 208 kts 100°
2026-05-07 05:12 42.30457 -70.54233 3507 ft 207 kts 100°
2026-05-07 05:12 42.30002 -70.48884 3950 ft 208 kts 101°
2026-05-07 05:13 42.28669 -70.33349 5418 ft 208 kts 103°
2026-05-07 05:13 42.27280 -70.17597 6668 ft 214 kts 103°
2026-05-07 05:13 42.26277 -70.07197 7337 ft 213 kts 109°
2026-05-07 05:13 42.25974 -70.05265 7464 ft 214 kts 108°
2026-05-07 05:14 42.25716 -70.03281 7594 ft 215 kts 106°
2026-05-07 05:14 42.24918 -69.97119 8013 ft 217 kts 107°
2026-05-07 05:14 42.24645 -69.95070 8011 ft 226 kts 107°
2026-05-07 05:14 42.24365 -69.92946 8017 ft 234 kts 106°
2026-05-07 05:15 42.23389 -69.85540 8016 ft 256 kts 105°
2026-05-07 05:15 42.23313 -69.79857 7981 ft 272 kts 64°
2026-05-07 05:15 42.24382 -69.77769 8010 ft 271 kts 49°
2026-05-07 05:15 42.25440 -69.75644 8001 ft 275 kts 61°
2026-05-07 05:16 42.26206 -69.73268 8014 ft 277 kts 69°
2026-05-07 05:16 42.26910 -69.70905 8285 ft 266 kts 66°
2026-05-07 05:16 42.27687 -69.68677 8515 ft 260 kts 64°
2026-05-07 05:16 42.33023 -69.53081 9719 ft 249 kts 65°
2026-05-07 05:17 42.38795 -69.35991 10706 ft 251 kts 65°
2026-05-07 05:17 42.40557 -69.30764 11006 ft 252 kts 66°
2026-05-07 05:17 42.41294 -69.28570 11013 ft 259 kts 66°
2026-05-07 05:17 42.42049 -69.26325 11010 ft 266 kts 66°
2026-05-07 05:18 42.43646 -69.21573 11011 ft 277 kts 66°
2026-05-07 05:18 42.46655 -69.12588 11004 ft 290 kts 66°
2026-05-07 05:18 42.47489 -69.10088 11005 ft 292 kts 66°
2026-05-07 05:18 42.48326 -69.07585 11006 ft 291 kts 66°
2026-05-07 05:19 42.49157 -69.05093 11001 ft 289 kts 66°
2026-05-07 05:19 42.49979 -69.02628 10988 ft 286 kts 66°
2026-05-07 05:19 42.50793 -69.00184 10989 ft 284 kts 66°
2026-05-07 05:19 42.54840 -68.87999 10996 ft 278 kts 66°
2026-05-07 05:20 42.61117 -68.68994 11006 ft 273 kts 66°
2026-05-07 05:20 42.67319 -68.50087 11009 ft 274 kts 67°
2026-05-07 05:20 42.73451 -68.31242 11001 ft 271 kts 67°
2026-05-07 05:20 42.79588 -68.12263 10988 ft 275 kts 68°
2026-05-07 05:21 42.85588 -67.93570 10992 ft 272 kts 68°
2026-05-07 05:21 42.97564 -67.55874 11002 ft 272 kts 69°
2026-05-07 05:21 43.03624 -67.36598 11002 ft 272 kts 69°
2026-05-07 05:22 43.09550 -67.17583 11007 ft 280 kts 69°
2026-05-07 05:22 43.14393 -67.01967 10972 ft 281 kts 70°
2026-05-07 05:22 43.15163 -66.99527 10984 ft 279 kts 65°
2026-05-07 05:22 43.16262 -66.97308 11008 ft 276 kts 54°
2026-05-07 05:23 43.21547 -66.85779 11008 ft 277 kts 57°
2026-05-07 05:23 43.29794 -66.67866 11012 ft 279 kts 59°
2026-05-07 05:23 43.36630 -66.52840 11012 ft 281 kts 59°
2026-05-07 05:23 43.44371 -66.35785 11026 ft 282 kts 59°
2026-05-07 05:24 43.52742 -66.17218 11011 ft 285 kts 59°
2026-05-07 05:24 43.61022 -65.98727 11028 ft 282 kts 59°
2026-05-07 05:24 43.69346 -65.80027 10997 ft 288 kts 59°
2026-05-07 05:24 43.77626 -65.61321 11081 ft 284 kts 60°
2026-05-07 05:25 43.80504 -65.54781 11071 ft 284 kts 60°
2026-05-07 05:25 43.81529 -65.52448 11070 ft 284 kts 60°
2026-05-07 05:25 43.82555 -65.50113 11067 ft 284 kts 60°
2026-05-07 05:25 43.83577 -65.47786 11224 ft 278 kts 60°
2026-05-07 05:26 43.84565 -65.45537 11448 ft 270 kts 60°
2026-05-07 05:26 43.85530 -65.43335 11615 ft 265 kts 60°
2026-05-07 05:26 43.86479 -65.41168 11750 ft 261 kts 60°
2026-05-07 05:26 43.87414 -65.39028 11864 ft 259 kts 60°
2026-05-07 05:27 43.88345 -65.36901 11972 ft 258 kts 60°
2026-05-07 05:27 43.89270 -65.34786 12071 ft 255 kts 60°
2026-05-07 05:27 43.90184 -65.32690 12135 ft 253 kts 60°
2026-05-07 05:27 43.95610 -65.20234 12364 ft 247 kts 60°
2026-05-07 05:28 43.98514 -65.13548 12404 ft 247 kts 61°
2026-05-07 05:28 44.03270 -65.02557 12408 ft 247 kts 61°
2026-05-07 05:28 44.10330 -64.86173 12428 ft 254 kts 61°
2026-05-07 05:28 44.15284 -64.74607 12403 ft 260 kts 61°
2026-05-07 05:29 44.16221 -64.72425 12404 ft 264 kts 61°
2026-05-07 05:29 44.17166 -64.70209 12403 ft 268 kts 61°
2026-05-07 05:29 44.18124 -64.67965 12405 ft 271 kts 61°
2026-05-07 05:29 44.19092 -64.65696 12403 ft 273 kts 61°
2026-05-07 05:30 44.21336 -64.60433 12404 ft 277 kts 61°
2026-05-07 05:30 44.29342 -64.41565 12379 ft 287 kts 61°
2026-05-07 05:30 44.34299 -64.29827 12388 ft 288 kts 62°
2026-05-07 05:30 44.35291 -64.27461 12638 ft 276 kts 61°
2026-05-07 05:31 44.36251 -64.25182 12824 ft 269 kts 61°
2026-05-07 05:31 44.37189 -64.22951 12979 ft 263 kts 61°
2026-05-07 05:31 44.38115 -64.20744 12981 ft 265 kts 61°
2026-05-07 05:31 44.39050 -64.18518 13000 ft 266 kts 61°
2026-05-07 05:32 44.40945 -64.13997 13022 ft 268 kts 61°
2026-05-07 05:32 44.48619 -63.95623 12958 ft 279 kts 62°
2026-05-07 05:32 44.56422 -63.76806 12958 ft 284 kts 63°
2026-05-07 05:32 44.64297 -63.57699 12956 ft 284 kts 64°
2026-05-07 05:33 44.66718 -63.51785 13019 ft 281 kts 64°
2026-05-07 05:33 44.67695 -63.49399 13005 ft 282 kts 64°
2026-05-07 05:33 44.69733 -63.44415 13007 ft 282 kts 64°
2026-05-07 05:33 44.73637 -63.34848 13012 ft 282 kts 65°
2026-05-07 05:34 44.77538 -63.25254 13006 ft 282 kts 65°
2026-05-07 05:34 44.81416 -63.15681 13015 ft 282 kts 66°
2026-05-07 05:34 44.85299 -63.06066 13019 ft 283 kts 66°
2026-05-07 05:34 44.89182 -62.96419 13039 ft 283 kts 66°
2026-05-07 05:35 44.93068 -62.86731 13024 ft 284 kts 67°
2026-05-07 05:35 44.96941 -62.77038 13023 ft 284 kts 68°
2026-05-07 05:35 45.00815 -62.67314 13023 ft 284 kts 68°
2026-05-07 05:35 45.04672 -62.57594 13037 ft 283 kts 68°
2026-05-07 05:36 45.08520 -62.47865 13039 ft 283 kts 69°
2026-05-07 05:36 45.12358 -62.38129 13041 ft 282 kts 69°
2026-05-07 05:36 45.16159 -62.28451 13037 ft 281 kts 69°
2026-05-07 05:36 45.19939 -62.18794 13029 ft 280 kts 69°
2026-05-07 05:37 45.23693 -62.09168 13033 ft 278 kts 69°
2026-05-07 05:37 45.27412 -61.99600 13044 ft 276 kts 69°
2026-05-07 05:37 45.31111 -61.90053 13044 ft 275 kts 69°
2026-05-07 05:37 45.34803 -61.80484 13058 ft 276 kts 69°
2026-05-07 05:38 45.38476 -61.70936 13059 ft 275 kts 69°
2026-05-07 05:38 45.42154 -61.61343 13053 ft 276 kts 68°
2026-05-07 05:38 45.45815 -61.51762 13049 ft 275 kts 68°
2026-05-07 05:38 45.49472 -61.42154 13041 ft 275 kts 68°
2026-05-07 05:39 45.53062 -61.32690 13038 ft 275 kts 68°
2026-05-07 05:39 45.56676 -61.23131 13038 ft 273 kts 68°
2026-05-07 05:39 45.60267 -61.13598 13045 ft 272 kts 68°
2026-05-07 05:39 45.63852 -61.04048 13056 ft 273 kts 68°
2026-05-07 05:40 45.67433 -60.94475 13067 ft 273 kts 68°
2026-05-07 05:40 45.71000 -60.84910 13082 ft 273 kts 68°
2026-05-07 05:40 45.74550 -60.75350 13083 ft 272 kts 68°
2026-05-07 05:40 45.78095 -60.65774 13092 ft 273 kts 68°
2026-05-07 05:41 45.81647 -60.56143 13094 ft 273 kts 68°
2026-05-07 05:41 45.85191 -60.46503 13101 ft 273 kts 68°
2026-05-07 05:41 45.88726 -60.36856 13107 ft 273 kts 68°
2026-05-07 05:41 45.92243 -60.27214 13100 ft 272 kts 68°
2026-05-07 05:42 45.95738 -60.17602 13103 ft 271 kts 68°
2026-05-07 05:42 45.99218 -60.08000 13092 ft 271 kts 68°
2026-05-07 05:42 46.02693 -59.98377 13100 ft 271 kts 68°
2026-05-07 05:42 46.06157 -59.88746 13098 ft 271 kts 68°
2026-05-07 05:43 46.09610 -59.79113 13093 ft 270 kts 68°
2026-05-07 05:43 46.13047 -59.69493 13104 ft 270 kts 68°
2026-05-07 05:43 46.16470 -59.59873 13118 ft 269 kts 68°
2026-05-07 05:43 46.19882 -59.50251 13133 ft 269 kts 68°
2026-05-07 05:44 46.23272 -59.40657 13135 ft 268 kts 68°
2026-05-07 05:44 46.26653 -59.31055 13129 ft 268 kts 68°
2026-05-07 05:44 46.30022 -59.21450 13134 ft 268 kts 68°
2026-05-07 05:44 46.33383 -59.11834 13134 ft 268 kts 69°
2026-05-07 05:45 46.36734 -59.02214 13137 ft 268 kts 69°
2026-05-07 05:45 46.40075 -58.92582 13137 ft 267 kts 69°
2026-05-07 05:45 46.43403 -58.82959 13140 ft 267 kts 69°
2026-05-07 05:45 46.46723 -58.73321 13143 ft 267 kts 69°
2026-05-07 05:46 46.50024 -58.63702 13147 ft 266 kts 69°
2026-05-07 05:46 46.53317 -58.54075 13151 ft 266 kts 69°
2026-05-07 05:46 46.56557 -58.44565 13152 ft 266 kts 69°
2026-05-07 05:46 46.57473 -58.41870 13120 ft 268 kts 69°
2026-05-07 05:47 46.58109 -58.39990 13024 ft 272 kts 69°
2026-05-07 05:47 52.80511 -9.72994 11000 ft 274 kts 78°
2026-05-07 05:48 52.80778 -9.71112 10209 ft 223 kts 78°
2026-05-07 05:48 52.81169 -9.68443 9861 ft 243 kts 77°
2026-05-07 05:48 52.81286 -9.67661 9951 ft 237 kts 77°
2026-05-07 05:49 52.81440 -9.66608 10156 ft 224 kts 78°
2026-05-07 05:49 52.81790 -9.64253 10532 ft 201 kts 77°
2026-05-07 05:49 52.82109 -9.62088 10690 ft 188 kts 78°
2026-05-07 05:50 52.82411 -9.60037 10754 ft 180 kts 77°
2026-05-07 05:50 52.82708 -9.58060 10793 ft 173 kts 77°
2026-05-07 05:50 52.82998 -9.56190 10944 ft 163 kts 77°
2026-05-07 05:50 52.83274 -9.54392 11038 ft 163 kts 77°
2026-05-07 05:51 52.83558 -9.52542 11255 ft 168 kts 77°
2026-05-07 05:51 52.83855 -9.50607 11245 ft 181 kts 77°
2026-05-07 05:51 52.84167 -9.48560 11208 ft 190 kts 77°
2026-05-07 05:51 52.84497 -9.46383 11197 ft 196 kts 77°
2026-05-07 05:52 52.84832 -9.44173 11194 ft 200 kts 77°
2026-05-07 05:52 52.85176 -9.41929 11081 ft 206 kts 76°
2026-05-07 05:52 52.85540 -9.39598 10754 ft 215 kts 76°
2026-05-07 05:52 52.85925 -9.37133 10487 ft 226 kts 76°
2026-05-07 05:53 52.86325 -9.34571 10238 ft 234 kts 76°
2026-05-07 05:53 52.86734 -9.31931 10010 ft 239 kts 77°
2026-05-07 05:53 52.87152 -9.29239 9765 ft 243 kts 77°
2026-05-07 05:53 52.87576 -9.26504 9494 ft 246 kts 77°
2026-05-07 05:54 52.88003 -9.23749 9235 ft 248 kts 77°
2026-05-07 05:54 52.88434 -9.20974 8977 ft 249 kts 77°
2026-05-07 05:54 52.88868 -9.18186 8726 ft 250 kts 77°
2026-05-07 05:54 52.89305 -9.15402 8480 ft 250 kts 77°
2026-05-07 05:55 52.89743 -9.12616 8249 ft 250 kts 77°
2026-05-07 05:55 52.90187 -9.09832 7999 ft 250 kts 77°
2026-05-07 05:55 52.90634 -9.07056 7758 ft 249 kts 77°
2026-05-07 05:55 52.91083 -9.04282 7519 ft 249 kts 77°
2026-05-07 05:56 52.91541 -9.01524 7291 ft 248 kts 77°
2026-05-07 05:56 52.92001 -8.98769 7061 ft 248 kts 77°
2026-05-07 05:56 52.92461 -8.96018 6839 ft 247 kts 77°
2026-05-07 05:56 52.92926 -8.93277 6614 ft 247 kts 77°
2026-05-07 05:57 52.93388 -8.90588 6400 ft 246 kts 77°
2026-05-07 05:57 52.93791 -8.88269 6194 ft 245 kts 77°
2026-05-07 05:58 52.94119 -8.86382 6033 ft 245 kts 77°
2026-05-07 05:58 52.94548 -8.83669 5779 ft 240 kts 85°
2026-05-07 05:58 52.94273 -8.81020 5428 ft 234 kts 121°
2026-05-07 05:59 52.93151 -8.79190 5148 ft 224 kts 153°
2026-05-07 05:59 52.91898 -8.77678 4939 ft 224 kts 142°
2026-05-07 05:59 52.90733 -8.75950 4692 ft 225 kts 141°
2026-05-07 05:59 52.89563 -8.74203 4300 ft 227 kts 141°
2026-05-07 06:00 52.88401 -8.72485 3850 ft 222 kts 141°
2026-05-07 06:00 52.87256 -8.70802 3392 ft 218 kts 141°
2026-05-07 06:00 52.86126 -8.69154 2942 ft 217 kts 141°
2026-05-07 06:00 52.85009 -8.67539 2968 ft 206 kts 141°
2026-05-07 06:01 52.83959 -8.65986 2981 ft 200 kts 141°
2026-05-07 06:01 52.82935 -8.64471 2991 ft 194 kts 141°
2026-05-07 06:01 52.81745 -8.63658 2967 ft 184 kts 182°
2026-05-07 06:01 52.80628 -8.64466 2975 ft 177 kts 227°
2026-05-07 06:02 52.80194 -8.66303 3019 ft 171 kts 258°
2026-05-07 06:02 52.80137 -8.68284 2824 ft 180 kts 282°
2026-05-07 06:02 52.80484 -8.70293 2743 ft 182 kts 282°
2026-05-07 06:02 52.80650 -8.72326 2709 ft 166 kts 266°
2026-05-07 06:03 52.80331 -8.73914 2596 ft 143 kts 234°
2026-05-07 06:03 52.79549 -8.74963 2362 ft 147 kts 208°
2026-05-07 06:03 52.78612 -8.75626 2153 ft 142 kts 207°
2026-05-07 06:03 52.77793 -8.76457 2081 ft 135 kts 218°
2026-05-07 06:04 52.77113 -8.77475 2008 ft 130 kts 226°
2026-05-07 06:04 52.76510 -8.78596 1837 ft 132 kts 231°
2026-05-07 06:04 52.75956 -8.79795 1596 ft 132 kts 235°
2026-05-07 06:04 52.75454 -8.81083 1311 ft 134 kts 239°
2026-05-07 06:05 52.74945 -8.82346 1120 ft 133 kts 233°
2026-05-07 06:05 52.74371 -8.83557 1038 ft 131 kts 231°
2026-05-07 06:05 52.73823 -8.84710 1033 ft 125 kts 233°
2026-05-07 06:05 52.73304 -8.85879 970 ft 128 kts 232°
2026-05-07 06:06 52.72742 -8.87040 804 ft 131 kts 230°
2026-05-07 06:06 52.72201 -8.88200 524 ft 131 kts 231°
2026-05-07 06:06 52.71641 -8.89403 283 ft 132 kts 231°
2026-05-07 06:06 52.71092 -8.90578 88 ft 123 kts 231°
2026-05-07 06:07 52.70616 -8.91581 28 ft 100 kts 234°
2026-05-07 06:07 52.70235 -8.92400 37 ft 68 kts 233°
2026-05-07 06:07 52.70044 -8.92815 41 ft 37 kts 233°
2026-05-07 06:07 52.69921 -8.92963 43 ft 18 kts 163°
2026-05-07 06:08 52.69822 -8.92824 43 ft 22 kts 135°
2026-05-07 06:08 52.69781 -8.92757 43 ft 22 kts 136°